TimeEDT,TemperatureF,Dew PointF,Humidity,Sea Level PressureIn,VisibilityMPH,Wind Direction,Wind SpeedMPH,Gust SpeedMPH,PrecipitationIn,Events,Conditions,WindDirDegrees,DateUTC
12:53 AM,39.9,37.0,89,29.72,8.0,NW,11.5,21.9,0.00,,Overcast,310,2012-11-01 04:53:00
1:53 AM,39.9,37.0,89,29.71,10.0,NW,10.4,-,N/A,,Overcast,310,2012-11-01 05:53:00
2:03 AM,39.2,37.4,93,29.69,10.0,NW,11.5,-,N/A,,Overcast,310,2012-11-01 06:03:00
2:23 AM,41.0,35.6,81,29.70,10.0,NW,13.8,23.0,N/A,,Overcast,310,2012-11-01 06:23:00
2:53 AM,41.0,36.0,82,29.71,10.0,NW,11.5,20.7,N/A,,Overcast,320,2012-11-01 06:53:00
3:44 AM,41.0,35.6,81,29.70,10.0,NW,12.7,20.7,N/A,,Overcast,310,2012-11-01 07:44:00
3:53 AM,39.9,36.0,86,29.71,10.0,WNW,11.5,-,N/A,,Overcast,290,2012-11-01 07:53:00
4:53 AM,39.9,35.1,83,29.70,10.0,WNW,10.4,-,N/A,,Overcast,290,2012-11-01 08:53:00
5:53 AM,39.9,34.0,79,29.71,9.0,NNW,16.1,24.2,0.00,Rain,Light Rain,330,2012-11-01 09:53:00
6:53 AM,39.9,32.0,73,29.71,10.0,NW,10.4,20.7,0.00,,Overcast,320,2012-11-01 10:53:00
7:53 AM,39.0,32.0,76,29.72,10.0,WNW,12.7,-,0.00,,Light Drizzle,300,2012-11-01 11:53:00
8:53 AM,39.0,32.0,76,29.73,10.0,WNW,9.2,-,0.00,,Mostly Cloudy,300,2012-11-01 12:53:00
11:53 AM,42.1,28.9,60,29.75,10.0,NW,16.1,21.9,N/A,,Mostly Cloudy,320,2012-11-01 15:53:00
1:53 PM,43.0,30.0,60,29.75,10.0,NW,13.8,19.6,N/A,,Mostly Cloudy,310,2012-11-01 17:53:00
2:53 PM,43.0,28.9,58,29.74,10.0,NW,13.8,21.9,N/A,,Overcast,320,2012-11-01 18:53:00
3:53 PM,44.1,30.9,60,29.75,10.0,WNW,16.1,21.9,N/A,,Overcast,300,2012-11-01 19:53:00
4:53 PM,44.1,30.0,58,29.75,10.0,NW,12.7,-,N/A,,Mostly Cloudy,310,2012-11-01 20:53:00
5:53 PM,43.0,30.0,60,29.77,10.0,WNW,9.2,18.4,N/A,,Overcast,300,2012-11-01 21:53:00
6:53 PM,43.0,28.9,58,29.78,10.0,NW,13.8,-,N/A,,Overcast,320,2012-11-01 22:53:00
7:53 PM,43.0,28.9,58,29.79,10.0,NNW,13.8,20.7,N/A,,Overcast,340,2012-11-01 23:53:00
8:53 PM,41.0,32.0,70,29.81,10.0,NW,19.6,24.2,0.00,,Overcast,320,2012-11-02 00:53:00
9:53 PM,41.0,28.9,62,29.81,10.0,North,13.8,21.9,0.00,,Overcast,350,2012-11-02 01:53:00
10:53 PM,42.1,28.0,58,29.82,10.0,NNW,12.7,25.3,N/A,,Overcast,330,2012-11-02 02:53:00
11:53 PM,39.9,30.9,70,29.82,10.0,NW,19.6,25.3,0.00,,Overcast,310,2012-11-02 03:53:00